STARLINK-1210 (45207 NORAD) Tracking and Keplerian Element Data

This shows tracking and keplerian element data for the satellite.

Feedback or suggestion? Click here.




ElementValue
Catalog45207
NameSTARLINK-1210
Epoch Orbit657
Epoch Day88.25001157
Epoch Year2020
RAAN72.2895
Inclination52.9988
Eccentricity0.0008222
Argument of Perigee305.208
Mean Anonmoly224.5786
Mean Motion15.62742724
Decay Rate3.497E-05
L11 45207U 20012AF 20088.25001157 .00003497 00000-0 44048-4 0 9999
L22 45207 52.9988 72.2895 0008222 305.2080 224.5786 15.62742724 6578

Live tracking and technical data element details for STARLINK-1210 (NORAD 45207). STARLINK-1210 can be tracked NOW for your location showing map with azimuth and elevation plus other details from your city location.

Track the satellite on the map from your city or location and see movement details for azimuth, elevation, latitude, longitude, range, height, and movement on the map or in text.







IsCatalogInMostPopularTable: catalog: 45207, numindb: 7
Update: records affected: 1



GetName: 45207 STARLINK-1210

Hit Count: updated at: Tue, 31 Mar 2020 12:40:51 GMT